Location: Beccas
(43.4309°N, 0.1528°E)
Time: 23:30:59
(UTC+00:00)

Cosmos 1125 Rocket - Pass Details

Date: 15 October 2021
Orbit: 758 x 779 km, 74.0° (Epoch: 26 November)

Event Time Altitude Azimuth Distance (km) Brightness Sun altitude
Rises 18:09:57 0° 189° (S) 3,237 6.9 -10.5°
Reaches altitude 10° 18:12:21 10° 186° (S) 2,311 6.1 -11.0°
Maximum altitude 18:17:32 63° 106° (ESE) 856 3.5 -11.9°
Drops below altitude 10° 18:22:43 10° 26° (NNE) 2,314 5.7 -12.9°
Sets 18:25:06 0° 24° (NNE) 3,241 6.5 -13.3°
